Greenwood, SC

10:58 PM EDT on August 22, 2017 (GMT -0400)
Greenwood County

Weather History for KGRD - January, 2013

Change the Weather History Date:

Sunday, January 20, 2013

  Actual Average (KAND) Record (KAND)
Temperature  
Mean Temperature 50 °F -  
Max Temperature 64 °F 51 °F 73 °F (2017)
Min Temperature 35 °F 31 °F 1 °F (1985)
Degree Days  
Heating Degree Days 16    
Moisture  
Dew Point 32 °F    
Average Humidity 55    
Maximum Humidity 85    
Minimum Humidity 32    
Precipitation  
Precipitation 0.00 in - - ()
Sea Level Pressure  
Sea Level Pressure 30.13 in    
Wind  
Wind Speed 6 mph (WSW)    
Max Wind Speed 13 mph    
Max Gust Speed -    
Visibility 10 miles    
Events      
Averages and records for this station are not official NWS values.
T = Trace of Precipitation, MM = Missing Value Source: NWS Daily Summary

Daily Weather History Graph

Daily Weather History Graph

Search for Another Location

Airport or City:

Trip Planner

Search our weather history database for the weather conditions in past years. The results will help you decide how hot, cold, wet, or windy it might be!

Date:

Astronomy

Jan. 20, 2013 Rise Set
Actual Time 7:32 AM EST 5:47 PM EST
Civil Twilight 7:05 AM EST 6:14 PM EST
Nautical Twilight 6:35 AM EST 6:44 PM EST
Astronomical Twilight 6:05 AM EST 7:14 PM EST
Moon 12:46 PM EST (1/20) 2:05 AM EST (1/20)
Length of Visible Light 11h 08m
Length of Day
10h 14m
Waxing Gibbous, 66% of the Moon is Illuminated
Jan 20
Waxing Gibbous
Jan 26
Full
Feb 3
Last Quarter
Feb 10
New
Feb 17
First Quarter

Hourly Weather History & Observations

Time (EST) Temp. Windchill Dew Point Humidity Pressure Visibility Wind Dir Wind Speed Gust Speed Precip Events Conditions
12:56 AM 37.0 °F 34.5 °F 30.9 °F 79% 30.21 in 10.0 mi WSW 3.5 mph - N/A   Clear
1:56 AM 35.1 °F 32.2 °F 30.9 °F 85% 30.20 in 10.0 mi WSW 3.5 mph - N/A   Clear
2:56 AM 37.9 °F 32.7 °F 30.9 °F 76% 30.19 in 10.0 mi WSW 6.9 mph - N/A   Clear
3:56 AM 39.9 °F 36.7 °F 30.0 °F 68% 30.18 in 10.0 mi West 4.6 mph - N/A   Clear
4:56 AM 39.9 °F 33.9 °F 28.9 °F 65% 30.17 in 10.0 mi WSW 9.2 mph - N/A   Clear
5:56 AM 42.1 °F 35.2 °F 28.0 °F 58% 30.17 in 10.0 mi WSW 12.7 mph - N/A   Clear
6:56 AM 42.1 °F 35.7 °F 28.9 °F 60% 30.16 in 10.0 mi WSW 11.5 mph - N/A   Clear
7:56 AM 41.0 °F 34.3 °F 28.9 °F 62% 30.17 in 10.0 mi WSW 11.5 mph - N/A   Clear
8:56 AM 44.1 °F 40.1 °F 30.9 °F 60% 30.17 in 10.0 mi WSW 6.9 mph - N/A   Clear
9:56 AM 48.0 °F - 30.9 °F 52% 30.19 in 10.0 mi West 6.9 mph - N/A   Clear
10:56 AM 53.1 °F - 30.9 °F 43% 30.18 in 10.0 mi West 6.9 mph - N/A   Clear
11:56 AM 57.0 °F - 32.0 °F 39% 30.16 in 10.0 mi Variable 6.9 mph - N/A   Clear
12:56 PM 61.0 °F - 33.1 °F 35% 30.11 in 10.0 mi Variable 6.9 mph - N/A   Clear
1:56 PM 63.0 °F - 34.0 °F 34% 30.09 in 10.0 mi Variable 6.9 mph - N/A   Clear
2:56 PM 64.9 °F - 34.0 °F 32% 30.06 in 10.0 mi West 8.1 mph - N/A   Clear
3:56 PM 64.9 °F - 34.0 °F 32% 30.07 in 10.0 mi Variable 5.8 mph - N/A   Clear
4:56 PM 63.0 °F - 34.0 °F 34% 30.06 in 10.0 mi WSW 5.8 mph - N/A   Clear
5:56 PM 54.0 °F - 35.1 °F 49% 30.07 in 10.0 mi SW 5.8 mph - N/A   Clear
6:56 PM 55.9 °F - 36.0 °F 47% 30.08 in 10.0 mi SW 3.5 mph - N/A   Clear
7:56 PM 48.9 °F - 36.0 °F 61% 30.09 in 10.0 mi SW 6.9 mph - N/A   Clear
8:56 PM 51.1 °F - 36.0 °F 56% 30.09 in 10.0 mi WSW 6.9 mph - N/A   Clear
9:56 PM 51.1 °F - 36.0 °F 56% 30.10 in 10.0 mi WSW 6.9 mph - N/A   Clear
10:56 PM 46.9 °F - 35.1 °F 63% 30.11 in 10.0 mi WSW 4.6 mph - N/A   Clear
11:56 PM 41.0 °F - 34.0 °F 76% 30.10 in 10.0 mi Calm Calm - N/A   Clear